Showing default

KUIPER-00230, 68579

Orbit data source: Space-Track

KUIPER-00230, 68579 is a payload satellite owned by Kuiper Systems (US) in LEO that was launched on Sat, 04 Apr 2026 UTC via an ATLAS V 551 launch vehicle from the Air Force Eastern Test Range (AFETR). Payload-class satellites include a variety of spacecraft equipped with specific instruments for various scientific and technological missions. These include communications satellites like Starlink; space stations such as the ISS; scientific satellites like the Hubble; Earth observation satellites from companies like Planet Labs, Umbra, and HawkEye 360; GPS; miniature CubeSats for education and research; and military/defense satellites.

Loading next visibility...
Identifier
68579, 2026-072G
Orbit
LEO
Country
Flag of USUS
Related business
Manufacturer
Kuiper Systems
Mission
Operational spacecraft
Bus & Motor
KUIPER, Unknown motor
Mass
~490 kg wet, ~490 kg dry
Launch date (UTC)
2026-04-04 (2 months ago)
Launch vehicle
ATLAS V 551
Launch site
Air Force Eastern Test Range (AFETR)
Object type
Payload
Rocket body
Debris
Shape & HBR
Unknown shape, 3.4 m
Radar Cross Section
Large (>1 m²)

Expand to show TLE details & history
Last TLE update: 1 week ago

TLE from 1 week ago
0 KUIPER-00230
1 68579U 26072G   26154.54180926  .00033032  00000-0  88714-3 0  9997
2 68579  51.8747 242.7334 0002607 334.6492  25.4367 15.37624880  9280
Epoch: 2026-06-03T13:00Z
TLE epoch observation values (Epoch: 2026-06-03T13:00:12.320Z)
Latitude
0.00004°
Longitude
155.68316°
Altitude
452.29 km
Speed
7.643 km/s
True Right ascension
16h 10m 56s
True Declination
0° 00' 00"
Sunlit
Object was in full shadow at epoch
Visualization orbit readout
Latitude
Unknown
Longitude
Unknown
Altitude
Unknown
Speed
Unknown
Apparent Right ascension
Unknown
Apparent Declination
Unknown
Sunlit
N/A
Visualization observer readout
Local Sidereal Time
03:22:15
Azimuth
Unknown
Elevation
Unknown
Doppler factor
Unknown
Orbital elements
Apogee altitude
455.383 km
Perigee altitude
451.821 km
Semi-major axis
6,831.739 km
Eccentricity
0.00026
Inclination
51.8747°
RAAN
242.7334°
Arg. of periapsis
334.6492°
True anomaly
25.44954°
Mean anomaly
25.4367°
Eccentric anomaly
25.44312°
Mean motion
3.84367 °/min
Orbital period
93.66 mins
BSTAR
0.00088714
Loading maneuver chart data...
Computing Atmospheric mass density...
Loading historical data...
Loading historical data...
Loading historical data...
Loading historical data...
Loading historical data...
Loading historical data...
Loading historical data...

Documentation

Showing up to 5 results
|